Date,TemperatureHighF,TemperatureAvgF,TemperatureLowF,DewpointHighF,DewpointAvgF,DewpointLowF,HumidityHigh,HumidityAvg,HumidityLow,PressureMaxIn,PressureMinIn,WindSpeedMaxMPH,WindSpeedAvgMPH,GustSpeedMaxMPH,PrecipitationSumIn
2014-1-1,54.3,37.9,27.0,35.9,29.1,22.4,89,72,48,30.24,29.98,5,1,8,0.00
2014-1-2,46.6,37.6,22.6,45.3,31.0,11.8,96,77,62,30.13,29.69,10,1,18,0.38
2014-1-3,37.2,25.2,16.7,15.2,10.3,5.3,64,54,36,30.33,30.13,5,1,11,0.00
2014-1-4,49.1,34.7,20.3,30.8,20.3,9.7,70,56,43,30.26,30.05,8,3,13,0.00
2014-1-5,49.6,42.6,34.5,46.4,36.2,27.8,94,78,70,30.06,29.59,9,2,15,0.40
2014-1-6,34.5,18.0,7.7,28.1,4.7,-7.0,77,56,41,30.37,29.75,5,0,12,0.00
2014-1-7,28.2,13.6,2.8,7.4,-1.4,-8.6,61,51,38,30.47,30.34,0,0,0,0.00
2014-1-8,46.8,27.1,12.2,22.0,12.7,4.0,70,55,35,30.46,30.31,3,0,7,0.00
2014-1-9,52.7,39.8,27.9,37.6,26.1,16.2,79,59,37,30.38,30.22,4,1,7,0.00
2014-1-10,49.5,44.4,41.7,48.4,42.5,37.9,97,93,80,30.22,29.83,4,0,7,0.15
2014-1-11,67.6,54.9,45.9,55.6,46.2,34.9,98,76,43,29.86,29.56,10,4,18,1.00
2014-1-12,64.2,48.0,36.1,42.7,35.6,29.4,85,64,39,30.05,29.85,8,1,12,0.00
2014-1-13,47.3,44.3,40.6,44.9,38.1,31.2,95,79,66,30.00,29.74,3,0,6,0.41
2014-1-14,62.2,49.9,40.3,45.9,39.5,32.2,96,70,43,29.89,29.70,5,1,11,0.15
2014-1-15,52.2,39.6,25.9,34.8,24.5,13.2,72,56,31,30.00,29.85,7,2,13,0.00
2014-1-16,50.7,33.1,19.9,26.0,18.8,11.8,73,56,34,30.00,29.78,8,2,12,0.00
2014-1-17,50.2,35.5,28.0,31.8,20.9,12.9,70,55,42,30.01,29.79,9,3,21,0.00
2014-1-18,47.3,33.9,19.8,21.9,15.6,9.2,66,48,25,30.08,29.81,7,3,15,0.00
2014-1-19,55.4,41.9,32.0,34.7,26.6,17.2,66,55,42,29.99,29.78,7,2,11,0.00
2014-1-20,66.9,48.5,31.5,37.0,30.4,22.1,70,51,31,29.92,29.74,6,2,10,0.00
2014-1-21,49.8,35.6,19.2,33.7,23.4,2.6,73,61,48,30.01,29.63,12,3,20,0.00
2014-1-22,36.1,23.2,12.2,7.8,1.2,-4.5,49,39,24,30.07,29.92,5,2,10,0.00
2014-1-23,37.9,23.3,14.2,17.8,5.2,-6.4,66,47,24,30.50,30.06,6,2,12,0.00
2014-1-24,34.3,19.1,5.2,9.6,-0.2,-6.2,60,44,24,30.55,30.10,4,1,8,0.00
2014-1-25,46.4,31.1,17.2,23.8,12.9,-1.2,62,47,37,30.09,29.73,9,3,17,0.00
2014-1-26,60.1,41.7,24.1,35.7,26.0,13.5,66,54,38,29.87,29.70,9,2,14,0.00
2014-1-27,51.4,40.0,21.9,35.3,19.4,-1.7,65,45,21,30.12,29.71,6,2,11,0.00
2014-1-28,24.3,19.9,13.3,14.2,5.9,-0.2,69,55,40,30.21,30.11,5,2,8,0.00
2014-1-29,34.2,18.9,5.7,5.4,-1.2,-8.1,55,42,22,30.29,30.19,5,1,8,0.02
2014-1-30,45.0,25.6,7.2,22.1,9.2,-2.5,68,51,30,30.25,30.02,6,1,10,0.01
2014-1-31,58.8,40.1,25.5,29.9,20.5,12.2,61,46,30,30.13,30.00,5,1,8,0.00
2014-2-1,60.3,43.2,30.2,44.6,30.9,15.7,87,62,38,30.04,29.94,6,1,8,0.00
2014-2-2,53.1,48.2,41.7,50.4,46.4,38.6,97,94,86,29.99,29.76,2,0,3,0.97
2014-2-3,48.9,43.2,37.2,47.3,37.3,32.8,99,80,66,30.10,29.73,5,1,14,1.20
2014-2-4,47.8,43.6,39.7,44.9,37.3,33.5,94,78,70,30.11,29.80,6,1,13,0.04
2014-2-5,46.6,39.7,28.6,45.8,33.8,19.4,97,79,64,30.23,29.73,8,3,13,0.46
2014-2-6,38.8,31.0,25.5,26.2,20.4,16.8,71,65,57,30.29,30.17,4,1,8,0.00
2014-2-7,48.6,34.1,22.3,31.2,23.4,16.3,79,65,52,30.28,30.14,4,1,8,0.00
2014-2-8,54.7,40.5,34.3,38.5,29.8,24.3,78,66,53,30.16,30.01,6,1,8,0.00
2014-2-9,52.7,43.3,36.5,39.4,35.2,30.0,84,73,60,30.06,29.93,6,1,11,0.00
2014-2-10,47.7,38.7,33.1,34.5,29.4,22.3,80,69,56,30.11,29.99,5,2,8,0.00
2014-2-11,44.4,35.8,32.2,27.9,22.4,19.1,64,58,50,30.18,30.08,5,2,8,0.00
2014-2-12,35.2,33.1,31.1,30.2,26.0,18.8,93,76,51,30.12,29.72,5,0,8,0.07
2014-2-13,32.2,32.0,31.8,30.4,30.1,30.0,93,93,92,29.73,29.68,0,0,0,0.00
2014-2-14,57.6,48.6,33.3,40.2,37.2,25.7,90,66,51,29.80,29.57,6,3,14,0.15
2014-2-15,48.9,37.8,27.9,40.0,24.7,16.7,91,60,43,30.02,29.57,12,2,22,0.01
2014-2-16,66.0,49.2,29.1,38.9,31.5,21.8,74,52,33,30.05,29.93,7,2,13,0.00
2014-2-17,63.9,48.8,33.4,52.4,37.4,25.8,90,66,42,30.10,29.86,9,2,15,0.28
2014-2-18,68.7,53.7,35.1,50.7,38.3,28.1,83,59,34,30.12,29.86,4,1,7,0.05
2014-2-19,77.4,65.3,55.2,57.6,53.5,50.3,89,67,45,29.90,29.80,7,3,13,0.04
2014-2-20,68.4,62.2,56.1,57.6,55.1,52.4,91,78,64,29.90,29.65,10,3,16,0.02
2014-2-21,64.0,52.6,40.5,56.7,35.2,23.8,92,55,24,30.00,29.65,10,3,16,1.20
2014-2-22,72.0,52.8,34.9,39.7,28.8,21.6,69,44,16,30.09,29.89,7,1,11,0.00
2014-2-23,76.8,58.6,44.2,40.1,34.8,28.5,63,42,24,29.96,29.78,7,2,12,0.00
2014-2-24,64.8,54.1,35.8,36.1,29.7,23.7,72,43,24,30.10,29.93,6,2,8,0.00
2014-2-25,68.5,58.8,38.8,62.6,30.3,22.6,85,36,26,30.02,29.69,10,3,10,0.00
2014-2-26,49.5,37.4,25.9,27.2,18.3,5.2,60,47,24,29.94,29.78,6,3,14,0.00
2014-2-27,56.7,35.2,18.5,21.1,11.5,4.9,58,40,22,29.92,29.81,5,1,12,0.00
2014-2-28,59.0,42.1,24.6,27.7,18.2,9.3,57,40,22,30.04,29.91,6,2,10,0.00
2014-3-1,55.4,49.0,43.5,40.0,34.9,27.9,67,58,45,30.12,30.00,7,1,11,0.00
2014-3-2,76.5,60.5,47.1,55.3,46.1,37.1,69,59,48,30.07,29.72,8,2,13,0.00
2014-3-3,61.9,39.4,28.0,50.8,32.3,18.5,93,76,61,30.13,29.64,12,1,18,0.45
2014-3-4,45.9,35.2,27.9,33.4,26.3,19.2,76,70,61,30.11,30.00,4,1,7,0.00
2014-3-5,64.8,45.7,30.9,43.3,33.8,27.0,88,65,41,30.08,29.92,5,1,8,0.00
2014-3-6,60.4,45.6,35.6,37.0,32.2,25.2,73,60,37,30.03,29.86,7,1,10,0.00
2014-3-7,70.2,53.8,43.0,43.6,37.3,31.3,77,55,34,29.91,29.78,6,1,8,0.00
2014-3-8,74.1,56.2,38.8,45.7,37.7,31.3,76,53,24,30.01,29.88,8,2,11,0.00
2014-3-9,76.1,58.6,46.8,46.4,40.4,36.6,74,53,27,30.08,29.93,5,2,9,0.00
2014-3-10,78.3,59.6,43.7,49.7,41.6,34.3,73,54,31,29.99,29.73,8,2,11,0.00
2014-3-11,82.4,63.8,46.2,53.7,47.1,38.6,80,56,34,29.78,29.53,8,2,11,0.00
2014-3-12,73.2,55.9,38.3,56.7,44.3,24.8,87,65,55,29.90,29.37,13,6,25,0.05
2014-3-13,60.6,45.8,31.8,28.8,22.2,14.6,64,42,21,30.11,29.89,11,3,18,0.00
2014-3-14,70.5,51.2,30.7,39.0,29.5,19.3,67,46,25,30.14,29.89,10,3,15,0.00
2014-3-15,73.9,59.1,43.2,48.8,41.1,33.3,68,52,39,29.99,29.84,5,1,8,0.00
2014-3-16,57.9,52.3,49.5,50.7,47.3,41.3,94,84,56,29.86,29.50,3,1,4,0.92
2014-3-17,51.3,45.9,42.8,49.9,41.6,38.4,96,85,74,29.73,29.51,4,1,7,0.30
2014-3-18,54.1,47.1,42.6,42.6,41.2,39.5,95,81,64,29.91,29.70,8,2,11,0.00
2014-3-19,58.6,50.5,47.1,48.1,43.1,40.6,85,76,67,29.95,29.87,8,4,14,0.00
2014-3-20,71.4,54.6,39.0,45.5,34.1,24.4,90,51,19,30.05,29.90,6,2,12,0.00
2014-3-21,71.8,54.1,34.3,39.6,32.0,24.8,72,46,24,30.02,29.84,8,2,10,0.00
2014-3-22,76.3,58.9,45.5,50.7,41.1,33.0,67,52,39,29.92,29.84,3,1,6,0.00
2014-3-23,64.8,51.6,41.9,43.8,38.4,28.0,91,63,35,30.11,29.85,8,2,13,0.38
2014-3-24,62.4,47.0,30.7,30.8,24.9,20.9,69,45,22,30.13,29.87,7,2,14,0.00
2014-3-25,49.6,41.2,31.8,30.8,23.9,14.1,69,50,42,30.57,29.81,10,3,19,0.00
2014-3-26,59.7,39.9,25.5,20.8,16.0,12.4,60,40,21,30.24,30.08,5,2,10,0.00
2014-3-27,70.5,51.8,34.7,38.1,26.2,16.0,63,39,20,30.17,29.91,10,4,17,0.00
2014-3-28,63.9,57.3,51.4,53.8,50.4,38.1,89,78,44,30.00,29.87,6,2,9,0.35
2014-3-29,62.6,54.2,43.9,58.0,48.1,35.6,94,81,60,29.97,29.63,11,2,20,0.53
2014-3-30,70.2,53.0,40.8,41.2,35.6,31.1,74,54,28,30.07,29.93,7,3,14,0.00
2014-3-31,80.8,58.1,35.8,40.1,32.4,23.4,76,43,13,30.09,29.88,5,1,8,0.00
2014-4-1,88.3,68.1,52.2,49.6,38.7,26.1,62,38,12,29.99,29.82,7,2,14,0.00
2014-4-2,88.3,69.9,52.3,55.6,46.9,35.2,61,45,24,29.98,29.81,8,2,14,0.00
2014-4-3,85.1,71.5,62.8,60.9,55.5,51.6,71,58,44,29.88,29.69,9,3,14,0.00
2014-4-4,69.6,64.7,56.8,60.1,53.8,43.1,87,68,58,29.83,29.61,8,3,15,0.01
2014-4-5,67.5,54.4,42.1,43.9,38.7,33.3,72,56,40,29.98,29.83,6,2,13,0.00
2014-4-6,68.5,55.7,45.3,47.7,40.5,34.0,87,58,41,29.95,29.77,6,2,9,0.30
2014-4-7,61.5,54.8,51.1,53.9,49.5,41.8,94,83,64,29.79,29.48,9,3,15,1.78
2014-4-8,72.5,57.2,43.7,45.7,41.5,36.1,76,57,36,29.72,29.57,6,2,11,0.00
2014-4-9,75.0,59.4,46.6,45.8,40.2,33.5,76,52,24,30.00,29.72,6,2,11,0.00
2014-4-10,51.3,47.6,44.6,37.6,35.4,33.2,65,63,56,30.02,30.00,1,0,3,0.00
2014-4-11,80.6,66.0,54.0,53.1,47.1,41.1,79,52,34,30.07,29.89,8,2,8,0.11
2014-4-12,85.3,67.9,52.0,58.5,53.8,49.7,93,65,39,30.07,29.85,6,1,6,0.01
2014-4-13,84.9,73.2,58.1,59.3,53.6,47.6,68,51,41,29.96,29.73,12,2,12,0.00
2014-4-14,70.0,65.1,60.3,58.0,55.0,51.3,87,71,54,29.81,29.60,7,2,10,0.51
2014-4-15,62.4,47.6,36.1,57.2,38.2,24.4,89,70,50,30.07,29.52,8,3,17,0.31
2014-4-16,71.2,49.4,33.8,38.9,29.6,22.4,65,48,26,30.19,29.99,6,2,9,0.00
2014-4-17,73.6,57.0,41.9,44.6,37.8,30.7,66,50,33,30.29,30.09,8,2,9,0.00
2014-4-18,66.9,58.2,52.7,45.9,42.0,37.4,63,55,46,30.19,30.02,3,0,6,0.00
2014-4-19,75.0,61.3,53.6,48.9,44.2,40.6,64,54,38,30.03,29.98,5,1,9,0.00
2014-4-20,86.0,64.6,45.1,54.3,46.1,40.6,86,55,28,30.12,29.91,6,1,8,0.00
2014-4-21,85.6,67.9,50.4,55.0,47.8,39.5,70,50,33,30.03,29.77,5,1,8,0.00
2014-4-22,79.2,66.3,60.1,60.3,54.1,48.3,80,65,51,29.79,29.62,4,0,6,0.01
2014-4-23,84.4,65.0,52.7,48.9,42.5,36.4,68,46,25,29.89,29.70,5,2,9,0.00
2014-4-24,87.6,66.9,46.0,54.2,43.7,34.0,66,45,25,29.91,29.65,5,1,8,0.00
2014-4-25,82.8,68.6,58.3,59.5,52.9,46.3,82,58,41,29.83,29.61,7,2,11,0.05
2014-4-26,89.1,67.7,46.8,54.5,47.8,42.9,88,54,24,29.90,29.71,4,1,8,0.00
2014-4-27,88.5,67.8,53.6,62.6,54.0,44.3,87,64,38,29.84,29.67,8,1,11,0.34
2014-4-28,84.6,70.8,62.1,64.4,60.9,58.5,91,73,48,29.75,29.48,6,2,13,0.34
2014-4-29,85.5,74.9,64.8,65.0,60.3,57.2,89,62,45,29.64,29.47,6,3,11,0.34
2014-4-30,75.2,65.7,58.5,61.2,56.7,46.8,87,73,54,29.78,29.57,6,2,11,0.24
2014-5-1,73.9,60.3,47.7,46.9,42.6,39.1,78,54,34,29.88,29.71,6,2,11,0.00
2014-5-2,75.0,60.9,47.3,48.8,43.0,38.3,77,53,36,29.86,29.72,6,2,11,0.00
2014-5-3,85.6,68.1,43.0,51.8,45.6,37.3,83,47,28,29.88,29.74,6,2,11,0.00
2014-5-4,91.8,71.5,52.5,58.6,50.0,43.3,73,50,26,29.95,29.74,5,1,12,0.00
2014-5-5,93.6,74.4,56.8,62.2,54.1,47.6,75,52,32,29.87,29.64,5,1,11,0.00
2014-5-6,95.0,74.9,56.5,62.0,54.3,48.2,77,51,30,29.82,29.69,5,1,7,0.00
2014-5-7,92.1,73.9,57.0,63.3,55.1,49.4,82,54,33,29.93,29.81,4,1,7,0.00
2014-5-8,93.4,75.4,58.1,63.1,55.7,49.4,78,53,32,30.02,29.86,6,1,21,0.00
2014-5-9,78.1,70.2,64.2,63.1,58.1,54.5,81,66,57,29.93,29.85,4,1,8,0.00
2014-5-10,84.9,70.3,62.6,62.9,59.7,57.1,87,71,46,29.93,29.78,5,1,8,0.04
2014-5-11,90.7,72.5,61.3,64.5,60.5,57.0,88,68,42,30.00,29.84,3,1,8,0.00
2014-5-12,93.4,76.9,65.1,67.1,61.9,56.7,86,62,40,30.00,29.88,4,1,7,0.04
2014-5-13,93.9,75.2,63.5,68.2,61.7,57.2,85,65,39,29.98,29.85,6,1,8,0.15
2014-5-14,84.6,72.2,65.3,63.7,61.5,57.5,86,71,45,29.93,29.75,6,1,9,0.57
2014-5-15,67.5,59.4,49.1,63.1,49.5,41.1,88,71,49,29.96,29.69,6,2,10,0.20
2014-5-16,70.0,54.9,43.0,50.2,41.6,36.5,90,64,34,29.99,29.89,7,2,14,0.05
2014-5-17,59.0,51.6,44.4,51.6,44.8,37.2,87,78,68,30.11,29.98,3,0,4,0.22
2014-5-18,71.8,57.3,52.9,54.1,50.8,48.7,91,80,53,30.12,30.03,3,0,5,0.31
2014-5-19,81.0,63.1,52.3,56.1,52.3,49.2,92,71,41,30.17,29.99,4,1,6,0.01
2014-5-20,88.0,70.8,56.3,61.8,55.0,51.1,88,61,35,30.12,29.88,5,1,11,0.00
2014-5-21,91.0,74.1,58.8,63.2,56.4,49.8,78,56,36,30.01,29.80,5,1,10,0.00
2014-5-22,91.6,77.0,62.6,66.0,60.3,54.8,78,58,41,29.97,29.81,5,1,12,0.00
2014-5-23,95.0,80.1,68.2,67.4,61.9,57.3,80,56,35,29.92,29.79,7,1,11,0.00
2014-5-24,90.0,75.1,65.7,62.5,56.6,50.5,67,53,39,29.99,29.83,4,1,9,0.00
2014-5-25,90.7,74.0,61.9,63.8,58.7,54.4,83,61,41,29.98,29.88,4,1,8,0.00
2014-5-26,93.6,75.1,63.0,66.8,60.6,57.2,85,63,39,30.03,29.89,4,1,8,0.08
2014-5-27,91.9,76.8,66.4,64.9,62.3,59.5,85,63,39,29.97,29.82,4,1,10,0.00
2014-5-28,92.3,77.0,64.9,65.3,61.5,57.3,86,62,38,29.89,29.77,7,1,8,0.12
2014-5-29,93.0,75.2,63.7,64.8,61.5,58.1,87,65,38,29.90,29.80,3,1,8,0.01
2014-5-30,91.0,75.8,65.1,65.5,61.9,58.7,85,64,42,29.93,29.83,4,1,7,0.04
2014-5-31,97.0,78.2,65.7,66.0,62.9,59.6,87,63,35,29.96,29.78,3,1,5,0.00
2014-6-1,86.4,76.0,69.1,62.5,58.9,54.4,71,56,43,30.04,29.90,5,2,9,0.00
2014-6-2,88.0,74.2,64.6,59.6,55.4,52.9,69,53,37,30.06,29.86,5,2,8,0.00
2014-6-3,93.6,75.2,62.8,68.4,59.4,52.8,76,59,42,29.98,29.77,4,1,8,0.04
2014-6-4,93.4,78.9,66.2,68.1,63.2,61.1,86,61,41,29.85,29.61,6,2,15,0.00
2014-6-5,90.9,77.2,68.4,65.3,61.8,55.3,82,60,43,29.76,29.59,9,2,16,0.17
2014-6-6,89.6,75.7,64.9,65.2,62.3,59.3,86,65,43,29.79,29.69,4,1,7,0.01
2014-6-7,95.2,79.0,66.6,67.0,62.9,58.6,85,60,38,29.83,29.67,4,1,8,0.02
2014-6-8,89.1,75.1,64.9,63.7,60.8,56.1,86,63,42,29.80,29.67,6,2,11,0.17
2014-6-9,88.9,72.2,63.0,63.9,57.8,52.3,78,61,43,29.84,29.62,4,1,8,0.20
2014-6-10,85.1,69.9,64.4,65.9,61.9,57.5,86,77,49,29.80,29.68,8,1,14,0.91
2014-6-11,86.9,71.2,66.2,64.6,60.8,54.9,86,71,44,29.74,29.55,5,1,8,0.05
2014-6-12,88.5,72.4,63.7,64.4,60.6,56.6,86,68,43,29.75,29.65,4,1,6,0.25
2014-6-13,84.9,71.6,66.9,66.6,62.8,58.1,87,75,48,29.81,29.69,5,1,9,0.24
2014-6-14,91.4,75.3,63.0,64.1,59.7,53.8,85,61,38,29.88,29.74,4,1,8,0.00
2014-6-15,95.2,77.7,62.6,66.8,59.4,53.6,75,55,36,29.97,29.80,7,1,8,0.00
2014-6-16,97.9,80.8,66.7,68.2,61.9,57.4,82,55,33,30.04,29.85,4,1,4,0.00
2014-6-17,99.9,81.3,66.2,67.5,62.0,58.0,80,55,32,30.03,29.83,4,1,8,0.00
2014-6-18,99.1,81.4,69.1,69.3,63.5,59.8,78,56,35,29.98,29.86,4,1,8,0.00
2014-6-19,96.1,78.8,69.3,69.3,63.4,57.1,84,61,40,30.00,29.87,8,1,11,0.00
2014-6-20,98.8,80.7,68.0,68.9,64.5,58.3,85,61,35,29.95,29.79,3,1,8,0.00
2014-6-21,98.1,79.1,68.9,68.9,62.9,57.6,82,60,35,29.85,29.71,6,1,14,0.30
2014-6-22,97.3,79.4,66.4,67.7,63.4,59.1,85,61,37,29.81,29.62,3,1,5,0.00
2014-6-23,96.3,76.6,67.6,70.4,63.4,59.0,83,66,38,29.88,29.74,13,1,13,0.97
2014-6-24,88.3,73.3,68.0,67.8,63.9,58.4,85,74,47,29.90,29.78,7,1,15,0.25
2014-6-25,95.0,79.2,69.1,69.7,63.2,57.0,85,61,36,29.90,29.73,5,1,8,0.01
2014-6-26,92.3,78.2,67.1,66.6,61.6,59.1,80,58,40,29.91,29.74,3,0,7,0.00
2014-6-27,94.8,80.0,71.2,67.6,63.1,59.9,76,58,37,29.94,29.81,5,1,9,0.00
2014-6-28,92.5,77.6,69.4,66.6,63.2,60.3,81,63,40,30.03,29.87,4,1,10,0.06
2014-6-29,89.8,76.5,69.6,67.9,63.5,59.6,83,66,43,30.03,29.91,4,1,8,0.04
2014-6-30,90.7,74.9,67.6,68.7,64.6,61.9,84,72,45,29.96,29.75,3,0,4,0.98
2014-7-1,97.3,82.0,71.4,70.6,66.2,63.0,85,62,36,29.85,29.67,4,1,10,0.00
2014-7-2,97.7,83.1,69.8,66.6,63.5,58.3,80,54,34,29.83,29.72,4,1,7,0.00
2014-7-3,90.5,78.0,68.7,61.1,56.2,51.2,65,48,32,29.93,29.80,5,2,9,0.00
2014-7-4,90.0,74.6,63.9,58.2,52.8,46.9,63,48,31,30.02,29.90,6,2,14,0.09
2014-7-5,93.6,76.7,65.1,62.0,52.5,46.0,54,44,32,30.08,29.91,4,1,5,0.00
2014-7-6,88.3,70.4,62.6,62.4,55.0,51.5,73,59,41,30.00,29.95,4,1,5,0.00
2014-7-9,90.0,76.7,70.3,63.6,62.2,59.9,78,63,41,29.85,29.76,8,1,8,0.05
2014-7-10,92.5,78.2,69.1,66.5,62.9,58.5,83,62,40,29.91,29.75,4,1,4,0.01
2014-7-11,97.3,80.2,66.0,64.1,60.0,56.0,78,53,32,29.99,29.83,5,1,5,0.00
2014-7-12,98.1,80.1,67.6,66.5,61.9,56.2,80,56,34,30.01,29.86,4,1,4,0.50
2014-7-13,95.5,80.7,70.0,70.0,64.2,60.2,83,60,36,29.96,29.77,8,1,8,0.00
2014-7-14,97.3,82.6,71.1,66.2,63.6,59.9,79,55,33,29.84,29.63,10,2,10,0.73
2014-7-15,90.7,78.2,66.9,66.3,57.9,48.9,83,51,34,29.78,29.63,9,2,11,0.01
2014-7-16,88.7,72.5,57.9,55.0,48.9,45.8,66,45,28,29.84,29.70,5,2,14,0.00
2014-7-17,90.1,71.7,57.2,56.4,50.5,45.1,66,49,30,29.90,29.82,4,1,8,0.00
2014-7-18,72.5,67.7,64.2,60.3,56.6,51.4,81,68,55,29.97,29.87,2,0,3,0.66
2014-7-19,75.4,69.0,63.3,66.2,62.3,57.4,85,79,68,29.93,29.82,2,0,5,1.18
2014-7-20,88.5,74.9,69.1,63.7,61.6,58.7,78,65,43,29.91,29.81,3,0,4,0.00
2014-7-21,88.2,77.5,71.8,67.9,63.9,60.8,81,65,43,29.93,29.84,4,1,7,0.40
2014-7-22,97.0,78.4,70.0,66.5,63.6,59.1,80,63,33,29.97,29.89,4,1,8,0.06
2014-7-23,95.9,79.2,68.7,68.7,63.5,60.6,83,61,35,29.94,29.75,2,1,4,0.01
2014-7-24,93.6,78.7,70.5,66.8,61.6,56.8,79,58,35,29.85,29.70,4,1,7,0.00
2014-7-25,95.7,76.4,62.6,61.2,56.4,52.7,79,53,28,29.91,29.77,4,1,7,0.00
2014-7-26,97.3,78.6,63.1,62.7,57.5,53.5,78,51,29,29.89,29.74,4,1,8,0.00
2014-7-27,97.7,82.5,71.1,66.5,61.8,58.0,71,51,34,29.86,29.66,7,2,14,0.00
2014-7-28,91.8,78.8,66.9,67.2,57.5,50.3,80,51,30,29.83,29.72,6,2,12,0.40
2014-7-29,86.2,72.1,61.2,53.3,49.5,45.1,65,47,27,29.91,29.81,5,2,12,0.00
2014-7-30,88.0,70.6,55.6,54.1,49.2,46.0,72,49,28,29.94,29.85,4,1,9,0.00
2014-7-31,84.4,71.6,62.6,59.0,54.1,49.2,71,55,39,29.93,29.87,2,0,4,0.00
2014-8-1,94.3,75.7,64.8,61.2,57.6,54.3,79,56,31,29.91,29.82,5,1,6,0.00
2014-8-2,87.4,73.4,66.2,61.0,58.5,54.9,73,61,40,29.93,29.87,6,1,10,0.77
2014-8-3,92.1,78.8,65.5,64.2,58.5,53.4,83,52,32,29.96,29.82,4,1,8,0.00
2014-8-4,70.5,68.7,68.4,54.0,51.4,51.1,58,54,52,29.91,29.89,1,0,3,0.00